Kazan, Russia

8:31 AM MSK on December 10, 2019 (GMT +0300)
Kazan

Weather History for UWKD - October, 2019

Change the Weather History Date:

Friday, October 11, 2019

  Actual Average Record
Temperature  
Mean Temperature 48 °F -  
Max Temperature 52 °F - - ()
Min Temperature 44 °F - - ()
Degree Days  
Heating Degree Days 17    
Moisture  
Dew Point 44 °F    
Average Humidity 84    
Maximum Humidity 100    
Minimum Humidity 69    
Precipitation  
Precipitation 0.00 in - - ()
Sea Level Pressure  
Sea Level Pressure 29.85 in    
Wind  
Wind Speed 10 mph ()    
Max Wind Speed 20 mph    
Max Gust Speed 27 mph    
Visibility 6.0 miles    
Events Rain    
T = Trace of Precipitation, MM = Missing Value Source: Averaged Metar Reports

Daily Weather History Graph

Daily Weather History Graph

Search for Another Location

Airport or City:

Astronomy

Oct. 11, 2019 Rise Set
Actual Time 6:04 AM MSK 4:54 PM MSK
Civil Twilight 5:27 AM MSK 5:30 PM MSK
Nautical Twilight 4:44 AM MSK 6:13 PM MSK
Astronomical Twilight 4:01 AM MSK 6:56 PM MSK
Moon 4:47 PM MSK (10/11) 2:40 AM MSK (10/11)
Length of Visible Light 12h 03m
Length of Day
10h 49m
Waxing Gibbous, 94% of the Moon is Illuminated
Oct 11
Waxing Gibbous
Oct 14
Full
Oct 21
Last Quarter
Oct 28
New
Nov 4
First Quarter

Hourly Weather History & Observations

Time (MSK) Temp. Windchill Dew Point Humidity Pressure Visibility Wind Dir Wind Speed Gust Speed Precip Events Conditions
12:00 AM 44 °F - 41 °F 86% 29.97 in 6 mi SE 2.2 mph - - Rain Light Rain
12:00 AM 44.6 °F 38.9 °F 41.0 °F 87% 29.95 in 6.2 mi SSE 11.2 mph - N/A Rain Light Rain
1:00 AM 44.6 °F 38.2 °F 41.0 °F 87% 29.92 in 6.2 mi SSE 13.4 mph - N/A Rain Light Rain
1:30 AM 44.6 °F 38.2 °F 42.8 °F 93% 29.92 in 6.2 mi SSE 13.4 mph - N/A Rain Light Rain
2:00 AM 44.6 °F 37.6 °F 42.8 °F 93% 29.89 in 6.2 mi SSE 15.7 mph - N/A Rain Light Rain
2:30 AM 44.6 °F 38.2 °F 42.8 °F 93% 29.86 in 5.0 mi SSE 13.4 mph 24.6 mph N/A Rain Light Rain
4:00 AM 46.4 °F 41.2 °F 44.6 °F 93% 29.83 in 3.7 mi South 11.2 mph 22.4 mph N/A Rain Light Rain
4:30 AM 46.4 °F 39.9 °F 44.6 °F 93% 29.83 in 5.6 mi South 15.7 mph - N/A   Overcast
5:00 AM 48.2 °F - 46.4 °F 93% 29.83 in 5.6 mi South 15.7 mph 26.8 mph N/A   Overcast
5:30 AM 48.2 °F - 46.4 °F 93% 29.83 in 6.2 mi South 15.7 mph 26.8 mph N/A   Overcast
6:00 AM 48 °F - 48 °F 100% 29.82 in 6 mi South 6.7 mph - -   Overcast
6:30 AM 48.2 °F - 46.4 °F 93% 29.80 in 6.2 mi South 20.1 mph - N/A   Overcast
7:00 AM 48.2 °F - 46.4 °F 93% 29.80 in 6.2 mi South 15.7 mph 26.8 mph N/A   Overcast
8:30 AM 48.2 °F - 44.6 °F 87% 29.80 in 6.2 mi South 15.7 mph 26.8 mph N/A   Overcast
9:30 AM 48.2 °F - 44.6 °F 87% 29.80 in 6.2 mi South 11.2 mph 22.4 mph N/A   Overcast
10:30 AM 48.2 °F - 42.8 °F 82% 29.80 in 6.2 mi South 11.2 mph 22.4 mph N/A   Overcast
11:00 AM 48.2 °F - 42.8 °F 82% 29.80 in 6.2 mi South 11.2 mph 22.4 mph N/A   Overcast
11:30 AM 48.2 °F - 42.8 °F 82% 29.80 in 6.2 mi South 13.4 mph 24.6 mph N/A   Overcast
12:00 PM 49 °F - 44 °F 77% 29.82 in 6 mi South 4.5 mph - -   Overcast
12:00 PM 48.2 °F - 44.6 °F 87% 29.80 in 6.2 mi South 11.2 mph 22.4 mph N/A   Overcast
12:30 PM 48.2 °F - 44.6 °F 87% 29.80 in 6.2 mi South 11.2 mph 22.4 mph N/A   Overcast
1:00 PM 50.0 °F - 42.8 °F 76% 29.80 in 6.2 mi SSW 8.9 mph 20.1 mph N/A   Overcast
1:30 PM 50.0 °F - 42.8 °F 76% 29.80 in 6.2 mi SSW 13.4 mph 24.6 mph N/A   Overcast
2:00 PM 50.0 °F - 44.6 °F 82% 29.80 in 6.2 mi SSW 8.9 mph 20.1 mph N/A   Overcast
2:30 PM 50.0 °F - 44.6 °F 82% 29.80 in 6.2 mi South 13.4 mph - N/A   Overcast
3:00 PM 52 °F - 46 °F 71% 29.83 in 6 mi SW 4.5 mph - -   Mostly Cloudy
3:30 PM 51.8 °F - 44.6 °F 76% 29.83 in 6.2 mi SSW 11.2 mph 22.4 mph N/A   Mostly Cloudy
4:00 PM 50.0 °F - 44.6 °F 82% 29.83 in 6.2 mi SSW 13.4 mph - N/A   Mostly Cloudy
4:30 PM 50.0 °F - 44.6 °F 82% 29.83 in 6.2 mi SSW 8.9 mph 20.1 mph N/A   Overcast
5:00 PM 50.0 °F - 44.6 °F 82% 29.83 in 6.2 mi South 11.2 mph - N/A   Overcast
5:30 PM 50.0 °F - 44.6 °F 82% 29.83 in 6.2 mi SSW 11.2 mph - N/A   Overcast
6:00 PM 50 °F - 46 °F 83% 29.87 in 6 mi SW 2.2 mph - -   Overcast
6:00 PM 50.0 °F - 44.6 °F 82% 29.86 in 6.2 mi South 11.2 mph - N/A   Overcast
6:30 PM 50.0 °F - 44.6 °F 82% 29.86 in 6.2 mi SSW 8.9 mph - N/A Rain Light Rain
8:00 PM 48.2 °F - 44.6 °F 87% 29.86 in 6.2 mi SW 6.7 mph - N/A   Overcast
8:30 PM 48.2 °F - 41.0 °F 76% 29.89 in 6.2 mi SW 4.5 mph - N/A   Overcast
9:00 PM 48 °F - 41 °F 69% 29.91 in 6 mi WSW 4.5 mph - -   Partly Cloudy
9:00 PM 46.4 °F 43.0 °F 41.0 °F 81% 29.89 in - SW 6.7 mph - N/A   Clear
9:30 PM 48.2 °F - 41.0 °F 76% 29.89 in - WSW 8.9 mph - N/A   Clear
10:00 PM 48.2 °F - 41.0 °F 76% 29.89 in 6.2 mi WSW 8.9 mph - N/A   Mostly Cloudy
10:30 PM 44.6 °F 39.8 °F 39.2 °F 81% 29.89 in 6.2 mi West 8.9 mph - N/A   Scattered Clouds
11:30 PM 44.6 °F 40.8 °F 37.4 °F 76% 29.92 in 6.2 mi WSW 6.7 mph - N/A   Scattered Clouds